Location: Champs
(48.8539°N, 2.6040°E)
Time: 09:46:26
(UTC+00:00)

USA 308 - Pass Details

Date: 28 May 2022
Orbit: 549 x 558 km, 54.0° (Epoch: 14 June)

Event Time Altitude Azimuth Distance (km) Brightness Sun altitude
Exits shadow 02:08:24 - 269° (W) 2,222 5.6 -12.9°
Reaches altitude 10° 02:09:24 10° 272° (W) 1,843 5.2 -12.9°
Maximum altitude 02:13:27 47° 348° (NNW) 750 3.8 -12.5°
Drops below altitude 10° 02:17:31 10° 62° (ENE) 1,853 6.6 -12.1°
Sets 02:19:50 0° 69° (ENE) 2,751 7.4 -11.9°
